TimeMDT,TemperatureF,Dew PointF,Humidity,Sea Level PressureIn,VisibilityMPH,Wind Direction,Wind SpeedMPH,Gust SpeedMPH,PrecipitationIn,Events,Conditions,WindDirDegrees,DateUTC
4:00 AM,2.1,-0.9,87,-9999,-9999.0,WNW,23.0,-,N/A,,Unknown,300,2013-10-25 10:00:00
5:00 AM,3.4,0.3,87,-9999,-9999.0,WNW,24.2,-,N/A,,Unknown,300,2013-10-25 11:00:00
6:00 AM,4,1,82,,,WNW,24.2,,,,,300,2013-10-25 12:00:00
6:00 AM,3.9,1.2,89,-9999,-9999.0,WNW,24.2,-,N/A,,Unknown,300,2013-10-25 12:00:00
7:00 AM,3.0,0.3,88,-9999,-9999.0,WNW,27.6,-,N/A,,Unknown,300,2013-10-25 13:00:00
8:00 AM,2.1,-0.6,88,-9999,-9999.0,NW,27.6,-,N/A,,Unknown,310,2013-10-25 14:00:00
9:00 AM,0.7,-2.2,88,-9999,-9999.0,NW,26.5,-,N/A,,Unknown,310,2013-10-25 15:00:00
10:00 AM,-0.2,-3.1,88,-9999,-9999.0,WNW,25.3,-,N/A,,Unknown,300,2013-10-25 16:00:00
11:00 AM,0.9,-1.8,88,-9999,-9999.0,NW,25.3,-,N/A,,Unknown,310,2013-10-25 17:00:00
12:00 PM,2,-1,80,,,WNW,24.2,,,,,300,2013-10-25 18:00:00
12:00 PM,1.6,-1.1,88,-9999,-9999.0,WNW,24.2,29.9,N/A,,Unknown,300,2013-10-25 18:00:00
1:00 PM,0.7,-2.2,88,29.86,-9999.0,WNW,26.5,-,N/A,,Unknown,300,2013-10-25 19:00:00
2:00 PM,-1.1,-4.2,87,29.89,-9999.0,WNW,24.2,-,N/A,,Unknown,290,2013-10-25 20:00:00
4:00 PM,-4.9,-8.3,85,29.94,-9999.0,WNW,24.2,-,N/A,,Unknown,290,2013-10-25 22:00:00
5:00 PM,-6.2,-9.8,84,29.96,-9999.0,WNW,24.2,-,N/A,,Unknown,290,2013-10-25 23:00:00
6:00 PM,-7,-10,78,29.97,,WNW,27.6,,,,,300,2013-10-26 00:00:00
6:00 PM,-6.7,-10.3,84,29.97,-9999.0,WNW,27.6,-,N/A,,Unknown,300,2013-10-26 00:00:00
7:00 PM,-6.0,-9.6,84,29.99,-9999.0,WNW,26.5,-,N/A,,Unknown,290,2013-10-26 01:00:00
8:00 PM,-5.6,-9.0,85,30.01,-9999.0,WNW,23.0,29.9,N/A,,Unknown,300,2013-10-26 02:00:00
9:00 PM,-6.7,-10.5,84,30.03,-9999.0,WNW,18.4,26.5,N/A,,Unknown,290,2013-10-26 03:00:00
10:00 PM,-6.7,-10.5,84,30.02,-9999.0,WNW,21.9,-,N/A,,Unknown,290,2013-10-26 04:00:00
11:00 PM,-7.8,-11.7,83,30.05,-9999.0,WSW,6.9,-,N/A,,Unknown,240,2013-10-26 05:00:00